STARLINK-34684

Last updated on Tue Aug 19 2025 00:02:06 GMT+0000 (Coordinated Universal Time)

1 64862U 25152W 25230.56153381 .00040527 00000+0 74220-3 0 9990 2 64862 97.6035 84.2121 0001555 87.6516 272.4913 15.49221288 4784
UTC large
Height (km)
Speed (km/s)
/
Latitude / Longitude
Inclination (degrees)
Orbital Period (minutes)
Azimuth
Elevation
Range (km)
Doppler Factor

Next 0 passes for location: London (51.5072 / 0.1276)

Sorry there are no passes over London.